STARLINK-37584, 69844

Orbit data source: Space-Track

STARLINK-37584, 69844 is a payload satellite owned by SpaceX/Seattle (US) in LEO that was launched on Sun, 05 Jul 2026 UTC via an FALCON 9 launch vehicle from the Air Force Eastern Test Range (AFETR). Payload-class satellites include a variety of spacecraft equipped with specific instruments for various scientific and technological missions. These include communications satellites like Starlink; space stations such as the ISS; scientific satellites like the Hubble; Earth observation satellites from companies like Planet Labs, Umbra, and HawkEye 360; GPS; miniature CubeSats for education and research; and military/defense satellites.

Loading next visibility...
Identifier
69844, 2026-154AB
Orbit
LEO
Country
Flag of USUS
Related business
Manufacturer
SpaceX/Seattle
Mission
Operational spacecraft
Bus & Motor
STARLINK V2MO, Unknown motor
Mass
575 kg wet, ~530 kg dry
Launch date (UTC)
2026-07-05 (2 months ago)
Launch vehicle
FALCON 9
Launch site
Air Force Eastern Test Range (AFETR)
Object type
Payload
Rocket body
Debris
Shape & HBR
BOX + PAN, 17.7 m
Radar Cross Section
Large (>1 m²)

Expand to show TLE details & history
Last TLE update: 6 hours ago

TLE from 6 hours ago
0 STARLINK-37584
1 69844U 26154AB  26254.74252765  .00009332  00000-0  28674-3 0  9993
2 69844  53.1605  12.6340 0001234  88.9550 271.1594 15.34424901 11895
Epoch: 2026-09-11T17:49Z
TLE epoch observation values (Epoch: 2026-09-11T17:49:14.388Z)
Latitude
-0.00005°
Longitude
114.5625°
Altitude
463.514 km
Speed
7.636 km/s
True Right ascension
00h 50m 32s
True Declination
0° 00' 00"
Sunlit
Object was in full shadow at epoch
Visualization orbit readout
Latitude
Unknown
Longitude
Unknown
Altitude
Unknown
Speed
Unknown
Apparent Right ascension
Unknown
Apparent Declination
Unknown
Sunlit
N/A
Visualization observer readout
Local Sidereal Time
16:01:25
Azimuth
Unknown
Elevation
Unknown
Doppler factor
Unknown
Orbital elements
Apogee altitude
463.73 km
Perigee altitude
462.042 km
Semi-major axis
6,841.023 km
Eccentricity
0.00012
Inclination
53.1605°
RAAN
12.634°
Arg. of periapsis
88.955°
True anomaly
271.14526°
Mean anomaly
271.1594°
Eccentric anomaly
271.15233°
Mean motion
3.83585 °/min
Orbital period
93.85 mins
BSTAR
0.00028674
Loading maneuver chart data...
Computing Atmospheric mass density...
Loading historical data...
Loading historical data...
Loading historical data...
Loading historical data...
Loading historical data...
Loading historical data...
Loading historical data...

Documentation

Showing up to 5 results
|